Temp
21 21 22 22 22 22 23 23 23 24 24 24 25 25 25 25 24 24 24 24 24 24 24 24 23 23 23 23 22 22 21 21 21 21 21 21 21 20 20 20 20 20 20 19 19 18 19 19 19 19 19 19 20 20 19 19 19 19 19 19 19 19 19 19 19 19 19 19 19 19 19 19 19 19 19 20 20 20 20 20 21 21 21 21 21
22 22 22 22 23 23 24 24 24 24 24 24 25 25 25 24 24 24 24 24 24 24 24 23 23 23 23 22 22 21 21 21 21 21 21 20 20 20 20 20 20 20 19 19 18 18 18 19 19 19 19 19 20 20 20 19 19 19 19 19 19 19 19 19 19 18 18 19 19 19 19 19 19 19 19 19 19 19 19 19 19 20 20 20 20
22 23 23 23 23 24 24 24 24 24 24 24 25 24 24 24 24 24 24 23 23 23 23 23 23 22 22 22 21 21 21 21 21 21 20 20 20 20 20 20 20 19 19 18 18 18 18 18 19 19 19 19 19 19 20 20 19 19 19 18 18 19 19 19 18 18 18 18 18 18 19 19 19 19 19 18 18 19 19 19 19 19 19 19 19
23 23 23 23 24 24 24 24 24 24 24 24 24 24 24 24 24 24 23 23 23 22 22 22 22 22 22 21 21 21 21 20 20 20 20 20 20 20 19 19 19 19 18 18 18 18 18 18 18 18 19 19 19 19 19 19 19 19 19 19 18 18 18 18 18 18 18 18 18 18 18 18 18 18 18 18 18 18 18 19 19 18 18 18 19
23 23 23 24 24 24 24 24 24 24 24 24 24 24 23 23 23 23 23 22 22 22 22 22 21 21 21 21 21 21 20 20 20 20 20 20 19 19 19 19 19 18 18 17 18 18 18 18 18 18 18 18 18 18 18 18 18 19 19 19 18 18 18 18 18 18 17 17 17 17 17 17 18 18 18 18 18 18 18 18 18 18 18 18 18
23 23 24 24 24 24 24 24 24 24 24 24 24 23 23 23 23 22 22 22 22 21 21 21 21 21 21 21 21 20 20 20 20 20 20 19 19 19 19 19 19 18 17 17 17 17 17 17 18 18 18 18 17 18 18 18 18 18 18 18 18 18 18 18 18 17 17 16 16 16 17 17 17 17 18 17 17 17 18 17 17 17 17 17 17
23 23 23 24 24 24 24 24 24 24 24 23 23 23 23 22 22 22 22 21 21 21 21 21 21 21 21 21 20 20 20 20 20 19 19 19 19 19 19 19 18 18 17 17 17 17 17 17 17 17 18 17 17 17 17 17 17 17 17 17 17 17 17 17 17 17 16 16 16 16 16 16 16 16 17 17 17 17 17 17 17 17 17 16 17
23 23 23 24 24 24 24 24 24 24 23 23 23 23 22 22 22 21 21 21 21 21 21 21 21 21 21 21 20 20 20 20 19 19 19 19 19 19 18 18 18 18 17 17 17 17 17 17 17 17 17 17 16 16 17 17 16 16 16 16 16 16 16 16 16 16 16 15 15 15 15 15 15 15 16 16 16 16 16 16 16 16 16 16 16
23 23 23 24 24 24 24 24 24 23 23 23 22 22 22 22 21 21 21 20 20 21 21 21 21 21 21 21 20 20 20 19 19 19 19 19 18 18 18 18 17 17 17 17 17 17 17 17 17 17 16 16 16 16 16 16 16 16 16 16 15 15 15 15 15 15 15 15 15 15 15 15 15 15 15 15 15 15 15 15 15 15 15 15 15
23 23 23 23 23 23 23 23 23 23 23 22 22 22 21 21 21 21 20 20 20 20 20 20 21 21 21 20 20 20 20 19 19 19 19 19 18 18 18 17 17 17 17 17 17 17 17 17 17 16 16 16 15 15 15 16 16 16 15 15 15 15 15 14 14 14 14 14 14 14 15 15 15 15 14 14 14 14 14 14 14 14 14 14 15
23 23 23 23 23 23 23 23 23 23 22 22 22 21 21 21 21 20 20 20 20 20 20 20 20 21 21 20 20 20 19 19 19 19 19 18 18 18 17 17 17 17 16 16 17 17 17 16 16 16 15 15 15 15 15 15 15 15 15 15 15 15 14 14 14 14 14 14 14 14 14 14 14 14 14 14 14 14 14 14 14 14 14 14 15
23 23 23 23 23 23 23 23 23 22 22 22 21 21 20 20 20 20 20 20 20 20 20 20 21 21 21 20 20 20 19 19 19 19 18 18 17 17 17 17 16 16 16 17 17 16 16 15 15 15 15 15 15 15 15 15 15 15 15 15 15 15 15 14 14 14 14 14 14 14 14 14 14 14 14 14 14 13 13 13 13 14 14 14 14
23 23 23 23 23 23 23 22 22 22 21 21 20 20 20 20 20 20 20 20 20 21 21 21 21 21 21 20 20 20 19 19 19 18 18 18 17 17 17 16 16 16 17 17 16 16 15 15 15 15 15 15 15 15 15 15 14 14 14 14 15 15 15 15 15 14 14 13 13 13 14 14 14 14 14 14 13 13 13 13 13 13 13 13 13
23 23 23 23 23 22 22 22 22 21 21 21 20 20 20 20 20 20 20 20 21 21 21 21 21 21 20 20 20 19 19 19 19 18 18 17 17 16 16 16 16 17 17 16 16 15 15 15 15 15 15 15 15 15 14 14 14 14 14 14 14 15 15 15 15 15 14 13 13 13 14 14 14 14 14 14 13 13 13 13 13 13 13 13 13
23 23 23 22 22 22 22 22 21 21 21 20 20 20 19 19 20 20 20 21 21 21 21 21 20 20 20 20 19 19 19 19 18 18 18 17 16 16 16 16 17 17 16 16 15 15 15 15 15 15 15 15 15 14 14 13 13 14 14 14 14 15 15 15 15 14 14 14 14 14 14 15 14 14 15 14 14 14 13 13 13 13 13 13 13
23 23 22 22 22 22 22 22 21 20 20 20 20 19 19 19 20 20 21 21 21 20 20 20 20 20 20 19 19 19 18 18 18 18 17 16 16 16 16 17 16 16 16 16 16 16 15 15 15 15 15 15 15 14 14 14 14 14 14 14 14 15 15 15 14 14 14 14 14 14 14 15 15 15 15 14 14 14 13 13 13 13 13 13 13
22 22 23 23 22 22 22 21 21 20 20 20 20 19 19 20 20 20 20 20 20 20 20 20 19 19 19 19 19 18 18 18 17 17 16 16 16 16 16 16 16 16 16 16 16 16 16 15 15 15 15 15 15 15 14 14 14 14 14 14 14 14 15 15 15 14 14 14 14 14 14 14 15 15 15 15 14 14 13 13 13 13 13 13 14
22 22 23 23 22 22 21 21 20 19 19 19 19 19 20 20 20 20 20 20 20 20 20 19 19 19 19 19 18 18 18 17 16 16 16 16 16 16 16 16 16 16 16 16 16 16 16 16 16 15 15 15 15 15 15 14 14 14 14 14 14 14 14 14 14 15 15 15 15 14 14 14 14 14 14 15 14 14 13 13 13 13 13 14 14
23 23 23 23 22 22 21 20 20 20 19 19 19 20 20 20 20 20 20 20 20 19 19 19 19 19 19 18 18 18 17 16 16 16 16 16 16 15 15 15 16 16 16 16 16 16 16 16 16 16 16 16 15 15 15 15 14 14 14 14 13 14 14 14 14 14 14 14 14 14 13 13 13 13 14 14 14 14 13 14 14 13 13 14 14
23 23 23 23 22 21 20 21 21 20 19 19 20 20 20 20 20 20 20 20 19 19 19 19 19 18 18 18 17 17 17 16 16 16 16 16 16 16 16 15 15 16 16 16 16 16 16 16 16 16 16 16 15 15 15 15 14 14 14 14 13 13 14 14 14 13 13 13 13 13 13 13 13 13 13 14 14 14 13 13 14 14 13 14 14
23 23 23 22 22 21 20 21 20 20 19 20 20 20 20 20 20 20 19 19 19 19 19 19 18 18 18 17 17 17 16 16 16 16 16 16 16 16 16 16 16 16 16 16 16 16 16 16 16 16 16 15 15 15 15 15 15 14 14 14 13 13 13 13 13 13 13 13 13 13 13 13 13 13 13 13 13 13 13 13 14 14 14 13 14
22 22 22 22 21 21 21 21 20 19 20 20 20 20 20 20 20 20 20 19 19 19 19 18 18 18 17 16 16 16 16 16 16 16 16 16 16 16 16 16 16 16 16 16 16 16 16 16 16 15 15 15 15 15 15 15 15 14 14 14 14 13 13 12 12 12 13 12 12 12 12 13 13 13 13 13 13 13 13 13 13 14 14 14 14
22 22 21 21 21 21 21 20 20 20 20 20 20 20 20 20 20 20 20 19 19 19 18 18 18 17 16 16 16 16 16 16 16 16 16 16 16 16 16 16 16 16 16 16 16 16 16 15 15 15 15 15 14 14 14 14 14 14 14 14 13 13 12 12 12 12 12 12 12 12 12 12 12 12 12 12 12 13 13 13 13 13 14 14 14
22 21 20 20 21 21 20 20 20 20 20 20 20 20 20 20 20 20 19 19 19 18 18 17 17 17 16 16 16 16 16 16 16 16 16 16 16 16 16 16 16 16 16 16 16 15 15 15 15 15 14 14 14 14 14 14 14 13 13 13 13 12 12 12 12 12 12 12 12 12 12 11 11 12 12 12 12 13 13 13 13 13 13 14 14
21 20 20 20 20 20 20 20 20 20 20 20 20 20 20 20 20 19 19 19 19 18 18 17 17 16 16 16 16 16 16 16 16 16 16 16 16 16 16 16 16 16 16 16 16 16 15 15 15 14 14 13 13 13 13 13 13 13 13 13 12 12 12 12 12 12 12 12 11 11 11 11 11 11 11 12 12 12 12 13 13 13 13 13 14
21 21 21 20 19 19 20 20 20 20 20 20 20 20 20 20 19 19 19 19 18 18 17 17 17 16 16 16 16 17 17 16 16 16 16 16 16 16 16 16 16 16 16 16 16 15 15 15 14 14 13 12 12 12 12 13 13 13 13 12 12 12 11 11 11 11 11 11 11 11 11 11 11 11 11 11 12 12 12 12 12 13 13 13 14
21 21 21 20 19 20 20 20 20 20 20 20 20 20 20 20 19 19 19 18 18 18 17 17 17 17 17 17 17 17 17 16 16 16 16 16 16 16 16 16 16 16 16 16 15 15 15 14 14 13 13 12 12 12 12 12 12 12 12 12 12 11 11 11 11 11 11 10 11 11 11 11 11 11 11 11 11 11 11 11 12 12 13 13 13
19 19 19 20 20 20 20 20 20 20 20 20 20 20 20 20 19 19 18 18 18 18 17 17 17 17 17 17 17 17 16 16 16 16 16 16 16 16 16 16 16 15 15 15 15 15 15 14 13 13 12 12 12 12 12 12 12 12 12 11 11 11 11 11 11 10 10 10 10 11 11 11 11 11 11 11 11 11 11 11 11 11 12 12 12
17 17 18 20 20 20 20 20 20 20 20 20 20 20 20 19 19 19 18 18 18 18 17 17 17 17 17 17 16 16 16 16 16 16 16 16 16 16 16 16 15 15 15 15 15 15 14 13 13 12 12 12 12 12 11 11 11 11 11 11 11 11 11 10 10 10 10 10 10 11 11 11 11 11 11 11 11 11 11 11 11 11 11 11 12
17 17 18 19 20 20 20 20 20 20 20 20 20 19 19 19 19 19 18 18 18 18 18 18 17 17 17 16 16 16 16 16 16 16 16 16 16 16 16 15 15 15 15 15 15 14 13 12 12 11 11 11 12 11 11 11 11 10 10 10 10 10 10 10 10 10 10 10 10 11 11 11 11 11 11 11 11 11 11 11 11 11 11 11 11
18 17 18 20 20 20 20 20 20 20 20 20 20 19 19 19 19 19 18 18 18 18 18 18 17 17 17 17 16 16 16 16 16 16 16 16 16 16 16 16 15 15 15 15 15 14 12 12 11 11 11 11 11 11 11 10 10 10 10 10 10 10 10 10 10 10 10 10 10 10 10 10 10 11 11 11 11 11 11 11 11 11 11 11 11
19 19 19 20 20 20 20 20 20 20 20 20 20 19 19 19 18 18 18 18 18 18 18 17 17 17 17 17 17 16 16 16 16 16 16 16 16 16 16 16 15 15 15 15 14 13 12 11 11 11 11 11 11 11 10 10 10 10 10 10 10 10 10 10 10 10 10 10 10 10 10 10 10 10 11 11 11 11 11 11 11 11 11 11 11
20 20 20 20 20 20 20 20 20 20 20 20 20 20 19 19 19 18 18 18 18 18 18 17 17 17 17 17 17 16 16 16 16 16 16 16 16 16 16 15 15 15 15 14 13 12 11 11 11 10 10 10 11 10 10 10 10 10 10 10 10 10 10 10 10 10 10 10 10 10 10 10 10 10 10 10 10 10 10 11 11 11 11 11 11
21 21 21 21 20 20 20 20 20 20 20 20 20 20 20 19 19 19 19 18 18 18 18 17 17 17 17 17 16 16 16 16 16 16 16 16 16 15 15 15 15 15 15 13 12 11 11 10 10 10 10 10 10 10 10 9 9 9 10 10 10 10 10 10 10 10 10 10 10 10 10 11 11 10 10 10 10 10 10 11 11 11 11 11 11
21 21 21 21 21 20 20 21 21 20 20 20 20 20 20 19 19 19 19 18 18 18 18 17 17 17 17 17 16 16 16 16 16 16 15 15 15 15 15 15 15 15 14 13 11 11 10 10 9 9 9 10 10 9 9 9 9 9 10 10 10 10 10 10 10 10 10 10 10 10 11 11 11 11 10 10 10 10 10 11 11 11 11 11 12
21 21 21 21 20 20 20 21 21 20 20 20 20 20 20 19 19 19 19 18 18 18 18 17 17 17 17 16 16 16 16 16 16 15 15 15 15 15 15 14 14 14 13 12 11 10 9 9 9 9 9 9 9 9 9 9 9 9 10 10 10 10 10 10 10 10 10 10 10 11 11 11 11 11 10 10 10 10 11 11 11 11 11 12 12
22 22 21 21 20 20 21 21 21 20 20 20 20 20 20 20 20 19 19 18 18 18 17 17 17 17 16 16 16 16 16 16 16 15 16 15 15 15 15 14 14 13 12 11 10 10 9 9 8 8 8 9 9 9 9 9 9 9 9 10 10 10 10 10 10 10 10 10 11 11 11 11 11 11 11 11 11 11 11 11 11 11 12 12 12
22 22 22 21 20 20 21 20 20 20 20 20 20 20 20 20 20 19 18 18 18 18 17 17 17 17 16 16 16 16 16 16 16 16 16 15 15 15 15 15 14 13 12 11 10 9 9 8 8 8 8 8 8 9 9 9 9 9 9 9 10 10 10 10 10 10 10 10 10 11 11 11 12 11 11 11 11 11 11 11 11 11 12 12 11
22 21 21 21 21 20 20 20 20 20 20 20 20 20 20 20 19 19 18 18 18 17 17 17 17 17 17 16 16 16 16 16 16 16 15 15 15 15 15 15 14 14 13 11 10 9 9 9 8 8 8 8 8 8 9 9 9 9 9 9 9 10 10 10 10 10 10 10 10 10 11 11 12 11 11 11 11 11 11 11 11 11 11 11 10
21 21 21 21 20 20 20 20 20 20 20 20 20 20 20 20 19 19 18 18 18 17 17 17 17 17 16 16 16 16 16 15 15 15 15 15 15 15 15 14 14 13 13 11 10 10 9 9 8 8 8 8 8 8 9 9 9 9 9 9 9 9 10 10 10 10 10 10 10 10 11 11 11 11 11 11 11 11 11 11 11 10 10 10 9
21 21 20 20 20 20 20 20 20 21 20 20 20 20 20 20 19 19 18 18 18 17 17 17 17 17 16 16 16 16 15 15 15 15 15 15 15 15 15 14 14 13 13 12 11 10 10 9 9 8 8 8 9 9 9 9 10 10 10 10 9 9 9 10 10 10 10 10 10 10 10 10 10 11 10 10 10 10 10 10 10 9 9 9 9
21 20 20 20 20 20 20 20 20 20 20 20 20 20 20 20 19 19 18 18 17 17 17 17 16 16 16 16 16 16 15 15 15 15 15 15 15 15 15 14 14 14 13 12 11 11 10 10 9 9 8 8 8 9 9 10 10 10 10 10 9 9 9 9 10 10 10 10 10 10 10 10 10 10 10 10 10 9 9 9 9 9 9 9 9
21 20 20 20 20 20 20 20 20 20 20 20 20 20 20 20 19 19 18 18 17 17 17 16 16 16 16 16 16 16 15 15 15 15 15 15 15 15 15 14 14 14 13 13 12 11 11 11 10 9 9 9 9 9 9 9 9 10 10 10 9 9 9 9 9 10 10 10 10 10 10 10 10 10 9 9 9 9 9 9 9 9 9 9 8
21 20 20 20 20 20 20 20 20 20 20 20 20 20 20 20 19 19 18 18 17 17 17 16 16 16 16 16 16 16 15 15 15 15 15 15 15 15 15 15 14 14 14 13 12 12 12 11 11 10 10 10 9 9 9 9 9 9 10 10 9 9 9 9 9 10 10 10 10 10 10 10 10 9 9 9 9 9 9 9 9 9 9 8 8
21 20 20 20 20 20 20 21 20 20 20 20 20 20 20 20 19 19 18 18 17 17 17 16 16 16 16 16 16 15 15 15 15 15 15 15 15 15 15 15 14 14 14 14 13 12 12 12 11 11 11 10 10 10 9 9 9 9 9 10 9 9 9 9 10 10 10 10 10 10 10 10 10 9 9 9 9 9 9 9 9 9 9 8 8
21 21 20 20 20 20 20 20 20 20 20 20 20 20 20 20 19 19 18 18 18 17 17 17 16 16 16 16 16 16 15 15 15 15 15 15 15 15 15 15 15 14 14 14 13 13 13 12 12 12 11 11 10 10 10 10 10 9 10 10 10 10 10 10 10 10 10 10 9 9 10 10 10 10 9 9 9 9 9 9 9 9 9 9 8
21 21 21 21 21 21 20 20 20 20 20 20 20 20 20 19 19 18 18 18 17 17 17 17 16 16 16 16 16 16 15 15 15 15 15 15 15 15 15 15 15 14 14 14 13 13 13 13 12 12 12 12 11 11 10 10 10 10 10 10 10 10 10 10 10 10 10 10 9 9 9 9 9 9 9 9 9 9 9 9 9 9 9 9 9
21 21 21 21 21 21 20 20 20 20 20 20 20 20 20 19 19 18 18 17 17 17 17 17 16 16 16 16 16 16 15 15 15 15 15 15 15 15 15 15 15 15 14 14 14 13 13 13 13 12 12 12 12 11 10 10 10 10 10 10 10 10 10 10 10 10 10 10 10 9 9 9 9 9 9 9 9 9 9 9 9 9 9 9 9
21 21 21 21 21 21 21 20 20 20 20 20 20 20 20 19 19 18 18 17 17 17 17 17 16 16 16 16 16 15 15 15 15 15 15 15 15 15 15 15 15 15 14 14 14 14 13 13 13 13 13 12 12 11 11 10 10 10 10 10 10 10 10 10 10 10 10 10 10 9 9 9 9 9 9 9 9 9 9 9 9 9 9 9 9
21 21 21 21 21 21 21 21 21 20 20 20 20 20 19 19 19 18 18 17 17 17 17 16 16 16 16 16 16 15 15 15 15 15 15 15 15 15 15 15 15 15 15 14 14 14 13 13 13 13 13 13 12 11 11 11 10 10 10 10 10 10 10 10 10 10 10 10 10 10 10 9 9 9 9 9 9 9 9 9 9 9 8 8 8
21 21 21 21 21 21 21 21 21 21 20 20 20 20 19 19 19 18 17 17 17 17 17 16 16 16 16 16 16 15 15 15 15 15 15 15 15 15 15 16 16 15 15 15 14 14 14 13 13 13 13 13 12 12 11 11 11 10 10 10 10 10 10 10 10 10 10 10 10 10 10 10 10 9 9 9 9 9 9 9 9 8 8 8 8
Height
804 806 807 808 808 808 809 809 809 809 809 809 810 810 811 811 812 813 814 815 816 816 817 818 818 819 819 820 820 821 822 822 822 822 821 821 821 821 820 819 818 817 816 815 814 813 813 812 811 810 810 809 809 808 807 807 806 806 805 805 804 804 803 803 802 801 800 799 798 797 797 796 795 794 794 793 792 792 791 791 790 790 789 789 789
804 806 807 808 809 809 810 810 810 810 810 810 811 811 812 813 814 815 815 816 817 817 818 819 819 820 820 820 821 822 822 822 822 822 822 822 821 820 820 819 818 817 815 814 813 813 812 811 811 810 809 809 808 808 807 806 805 805 804 804 803 802 802 801 801 800 799 798 797 797 796 795 794 793 793 792 791 791 790 790 789 789 788 787 787
804 806 807 808 809 810 810 811 811 811 812 812 813 814 814 815 816 817 817 818 818 819 819 820 820 820 821 821 822 822 822 822 822 822 822 821 821 820 819 818 817 816 815 814 813 812 812 811 810 809 809 808 807 807 806 805 804 804 803 802 802 801 800 800 799 798 797 796 796 795 794 794 793 792 792 791 790 789 789 788 788 787 787 786 786
805 806 807 808 810 810 811 812 812 813 814 814 815 816 816 817 818 818 819 819 819 820 820 820 821 821 821 821 822 822 822 822 822 822 821 821 821 820 819 818 817 816 815 814 813 812 811 811 810 809 808 807 806 806 805 804 803 802 802 801 800 800 799 799 798 797 796 795 794 793 793 792 792 791 790 789 789 788 787 787 786 785 785 785 784
807 807 808 809 810 811 812 813 814 815 816 816 817 817 818 818 819 820 820 820 820 821 821 821 821 821 822 822 822 822 822 822 822 822 822 821 821 820 819 818 817 816 815 814 813 812 811 810 809 809 807 806 806 805 804 803 802 801 801 800 799 798 798 797 796 795 794 793 792 791 791 790 790 789 789 788 787 786 785 785 784 784 783 782 782
808 808 809 810 811 812 813 814 815 816 817 818 819 819 820 820 820 821 821 821 821 821 821 821 821 822 822 822 822 822 822 822 822 822 822 821 821 820 819 818 817 815 815 814 813 812 811 810 809 808 807 806 804 804 803 802 801 800 799 799 798 797 796 795 794 793 792 791 790 789 789 788 788 787 787 786 785 784 783 782 782 781 781 780 779
810 810 810 811 812 813 814 815 816 817 818 819 820 820 821 821 821 821 822 822 822 822 822 822 821 821 822 822 822 822 822 822 822 822 822 821 821 820 819 818 817 815 814 814 813 812 810 809 808 807 805 804 803 802 801 800 800 799 798 797 796 795 794 793 793 792 790 789 788 787 786 786 785 785 784 784 783 782 781 780 779 779 778 777 777
810 811 811 812 813 814 815 816 817 818 819 820 820 821 821 822 822 822 822 822 822 822 822 822 822 821 822 822 822 822 822 822 822 822 821 821 820 819 818 817 816 815 814 813 812 811 810 808 807 805 804 803 802 801 800 799 798 797 796 795 795 794 793 792 791 790 788 787 786 785 784 783 782 782 782 782 781 780 780 779 778 776 775 775 774
811 811 812 813 814 815 816 817 818 818 819 820 820 821 821 821 821 822 822 822 822 822 822 822 822 821 821 822 822 822 822 822 821 821 821 820 820 819 818 817 816 815 814 813 812 810 809 807 806 804 803 802 801 800 799 798 797 796 795 794 793 792 791 790 789 788 787 785 784 783 782 780 780 780 780 779 779 778 778 777 776 774 774 773 772
810 811 812 813 814 815 816 817 818 818 819 820 820 820 820 821 821 821 821 821 822 822 822 821 821 821 821 821 821 821 821 821 821 821 820 820 820 819 818 817 816 814 813 812 810 809 807 806 804 803 802 800 799 798 797 797 796 795 794 793 792 791 790 789 788 786 785 784 783 782 780 778 777 778 778 777 777 776 776 775 774 772 772 771 770
811 811 812 813 814 815 816 817 818 818 819 820 820 821 821 820 820 820 820 820 821 821 821 821 821 821 821 821 821 821 821 821 820 820 820 819 819 818 817 816 815 814 813 811 809 807 806 805 803 802 800 799 798 797 796 795 794 794 793 792 791 790 789 788 786 785 783 782 780 779 778 776 775 776 775 775 774 774 774 773 772 771 770 769 768
811 812 812 814 815 816 816 817 818 819 820 820 821 821 821 821 820 820 820 820 820 820 820 820 820 821 820 820 820 820 820 820 820 820 820 819 819 818 816 816 815 813 812 810 808 806 804 803 801 800 799 798 797 795 794 794 793 792 791 790 789 788 787 786 785 783 782 780 778 777 776 775 774 773 773 773 772 772 772 772 770 769 768 767 766
812 812 813 814 815 816 816 817 818 818 819 819 820 820 821 820 820 820 820 820 820 819 820 820 820 820 820 820 820 820 820 820 820 820 819 819 818 817 816 815 814 813 811 809 807 805 803 802 800 799 798 797 795 794 792 791 790 789 788 787 786 785 784 783 782 781 780 778 776 774 774 773 772 772 771 771 770 770 770 769 768 768 767 766 765
814 813 814 814 815 815 816 816 817 817 817 818 819 819 820 820 820 820 820 820 820 819 820 820 820 820 820 820 820 820 820 820 820 819 819 818 817 817 816 815 814 812 810 808 806 805 803 801 799 797 796 795 794 792 791 790 788 787 785 784 783 782 781 780 779 778 777 775 774 772 771 771 770 769 769 769 768 767 767 766 766 766 765 764 763
815 814 814 814 814 815 816 817 817 818 818 818 818 818 819 819 820 820 821 820 820 820 820 820 820 821 821 820 821 821 820 820 820 819 818 817 817 816 815 814 813 811 809 808 806 805 803 801 799 797 795 794 793 791 790 788 786 785 783 782 780 779 778 777 776 775 774 772 771 770 769 769 768 767 767 766 765 765 764 764 764 763 763 762 761
816 815 814 813 815 816 817 818 818 818 819 818 818 818 818 819 820 821 821 821 821 821 821 821 821 821 821 821 821 821 820 820 819 818 818 817 816 816 815 813 812 810 808 807 805 804 802 800 798 797 795 793 792 791 789 787 785 783 781 780 778 777 776 775 774 773 771 770 769 768 767 766 765 765 764 764 763 762 762 762 761 761 761 760 758
816 815 814 814 816 817 818 818 818 818 819 818 818 818 819 820 820 821 822 821 821 821 821 822 822 821 821 821 821 820 820 819 818 818 817 817 816 815 814 812 811 809 808 806 805 803 801 800 798 796 795 793 791 790 788 787 785 783 781 779 777 776 774 773 772 770 769 768 767 765 764 763 763 762 761 761 760 760 760 759 759 759 759 758 757
817 816 815 815 816 816 817 817 818 818 818 818 818 819 820 821 821 822 822 822 822 822 822 822 822 822 822 821 820 820 819 818 818 817 817 816 815 814 813 812 810 809 807 806 804 803 801 800 798 796 794 792 791 789 787 786 784 782 780 778 776 775 773 772 770 768 767 765 764 763 762 761 760 759 759 758 758 758 757 756 756 757 757 756 755
817 816 815 815 815 816 816 817 818 817 818 818 818 819 820 821 821 822 822 822 822 822 822 823 822 822 821 821 820 819 819 818 818 817 817 816 815 814 813 812 810 809 807 805 804 802 801 799 798 796 794 792 790 788 787 785 783 781 779 777 775 773 772 770 768 766 765 763 762 761 760 759 758 757 756 756 756 755 755 754 754 754 754 754 753
815 814 814 814 815 817 817 818 818 817 818 818 818 819 821 821 822 822 822 822 822 823 823 823 822 822 821 820 820 819 819 818 818 818 817 816 815 814 813 812 810 809 807 805 803 802 801 799 797 796 794 792 789 787 786 784 782 780 778 776 774 772 771 769 767 765 764 762 760 759 758 757 756 755 754 754 753 753 753 752 752 752 752 752 752
813 813 814 814 816 817 818 818 818 817 818 818 819 820 821 822 822 822 823 823 823 823 823 822 822 822 821 820 820 819 819 819 818 818 818 817 816 814 813 812 810 809 807 806 804 802 800 798 796 794 792 790 788 785 783 782 780 778 776 774 773 771 769 767 766 764 762 761 759 758 756 756 755 754 753 752 752 751 751 751 750 750 750 750 750
813 813 813 814 815 817 818 818 818 818 818 818 819 820 821 822 823 823 823 823 823 823 823 823 822 822 821 821 820 820 820 819 819 819 818 817 816 815 813 812 811 809 807 805 804 802 800 798 795 793 791 788 786 783 781 779 777 775 773 771 770 768 767 766 764 763 761 759 758 756 755 754 753 752 752 751 750 750 749 749 749 748 748 748 747
813 813 813 815 816 816 817 818 818 819 819 819 820 821 822 822 823 823 823 823 823 823 823 823 822 822 821 821 821 821 820 820 820 819 818 817 816 815 814 813 811 809 807 806 804 802 800 797 794 792 789 786 784 781 779 776 775 773 771 769 767 766 764 763 762 761 759 758 756 755 754 753 752 751 750 750 749 748 748 747 747 746 746 746 745
812 812 814 815 816 816 817 818 819 819 819 820 820 821 822 823 823 824 824 824 824 824 823 823 823 822 822 822 821 821 821 820 820 819 818 817 817 815 814 813 812 810 808 806 804 802 799 797 794 791 788 785 782 779 776 774 773 771 769 767 765 764 763 761 760 759 757 756 754 753 752 751 750 750 749 748 747 747 746 746 745 745 744 743 743
810 811 813 814 815 816 817 818 819 819 819 820 821 821 822 823 823 824 824 824 824 824 824 823 823 822 822 822 821 821 821 820 820 819 818 818 817 816 815 814 812 811 809 807 804 802 799 797 793 790 787 784 780 777 774 772 771 770 768 766 764 763 762 760 759 757 756 754 753 752 751 750 749 748 747 747 746 745 745 744 744 743 743 742 741
809 810 811 812 813 815 816 817 818 819 819 820 820 821 822 822 823 824 824 824 824 824 824 823 823 823 822 822 821 821 821 820 820 819 819 818 817 816 815 814 812 811 809 807 804 801 799 796 792 789 786 783 780 776 773 771 770 768 767 765 764 762 761 759 758 756 755 754 752 751 750 749 748 747 746 745 745 744 743 743 742 742 742 741 740
809 809 809 810 812 813 815 816 817 818 819 820 820 821 822 822 823 823 824 824 824 824 824 823 823 823 822 822 822 821 821 821 820 819 819 818 817 816 815 813 812 810 808 806 803 800 797 794 791 788 784 782 779 776 773 771 768 767 766 764 763 762 760 759 757 756 754 753 751 750 749 748 747 746 745 744 743 743 742 742 741 741 740 740 740
813 812 810 810 812 813 815 816 817 818 819 820 821 822 822 822 823 823 824 824 824 824 823 823 822 822 822 822 822 822 821 821 820 819 819 818 817 816 814 813 811 809 807 805 802 799 796 793 790 786 783 780 777 775 772 770 768 766 765 764 762 761 759 758 757 755 754 752 750 749 748 746 745 744 743 743 742 742 741 741 740 740 739 739 739
816 817 814 812 813 815 815 816 817 818 819 821 821 822 823 823 823 823 823 824 823 823 823 822 822 822 823 823 822 822 821 821 820 820 819 818 817 815 814 813 811 809 807 805 802 799 796 792 789 785 782 779 776 774 772 770 768 766 765 763 762 760 759 758 756 755 753 751 750 748 747 746 744 743 742 742 741 740 740 739 739 739 739 739 739
812 816 818 815 815 816 816 817 817 818 819 820 821 822 823 824 824 823 823 823 823 823 822 822 822 823 823 823 823 822 822 821 821 820 819 818 817 816 814 813 811 810 807 805 802 798 795 792 789 785 782 780 777 775 773 770 768 766 764 763 761 760 759 758 756 755 753 751 749 748 746 745 744 742 742 741 740 740 739 739 738 738 738 738 738
804 811 816 817 816 816 817 817 817 818 819 820 821 822 823 823 824 824 823 823 823 822 822 822 823 823 823 823 823 823 822 822 821 820 819 818 817 816 815 814 812 810 808 805 801 798 795 792 789 786 783 780 778 776 774 771 769 767 765 763 762 760 759 758 756 754 752 750 749 747 745 744 743 742 741 740 739 739 739 738 738 738 738 738 738
800 806 813 816 816 817 817 817 817 818 819 820 821 821 822 823 823 824 823 823 823 823 823 823 823 823 823 823 823 823 823 822 822 821 819 819 818 817 816 814 812 810 808 805 801 798 795 792 789 786 783 781 778 777 775 772 770 768 766 764 762 761 759 758 756 754 752 750 748 746 744 743 742 741 740 739 739 738 738 738 738 738 737 737 737
799 805 812 814 815 816 817 817 817 817 818 819 820 821 822 822 822 823 823 823 823 823 823 823 823 823 823 823 823 823 823 822 822 821 820 819 818 817 816 815 813 811 808 804 801 798 795 792 789 787 784 781 779 778 776 773 771 769 767 765 763 761 760 758 755 753 751 749 747 745 743 742 741 740 739 739 738 738 738 738 738 738 737 737 737
798 805 810 812 814 815 815 816 817 817 818 819 820 821 821 822 822 822 822 822 823 823 823 823 823 823 823 823 823 823 823 823 822 821 820 820 819 818 816 815 813 810 807 804 802 799 795 792 790 787 785 783 781 779 776 774 772 770 768 766 764 762 760 758 756 753 751 748 746 744 743 741 740 739 739 738 738 739 738 738 738 738 738 737 736
799 804 808 810 812 814 814 815 816 817 818 819 820 820 821 821 822 822 822 822 822 823 823 823 823 823 823 823 823 823 823 823 822 822 821 820 819 818 816 814 811 809 806 804 802 799 796 793 791 788 786 784 782 780 777 775 773 771 769 767 765 763 760 758 756 754 751 749 746 744 743 741 740 739 739 739 739 739 739 739 739 738 738 737 737
799 804 806 809 811 812 814 815 816 817 818 819 819 820 821 821 821 821 821 822 822 823 823 823 823 824 824 824 824 824 824 823 823 822 822 821 820 818 816 814 812 809 807 805 803 800 797 795 792 790 787 785 783 781 778 776 774 772 770 768 766 763 761 759 757 755 752 750 747 745 743 742 741 740 740 740 740 740 740 740 739 739 739 738 738
800 802 804 807 809 811 813 815 816 817 818 818 819 819 820 820 821 821 821 822 822 823 823 824 824 824 824 824 824 824 824 824 823 823 822 822 820 818 817 815 813 811 809 806 804 801 799 796 793 791 788 786 784 781 779 777 775 773 771 769 767 765 763 761 758 756 753 751 748 746 744 743 742 741 741 741 742 741 741 741 740 740 740 739 739
799 801 803 806 808 811 813 815 816 816 817 817 818 819 819 820 820 820 821 822 822 823 824 824 824 825 824 824 824 824 824 824 824 823 822 822 820 819 818 817 815 813 810 808 806 803 800 797 795 792 790 787 785 783 780 778 776 774 772 770 768 766 764 762 759 757 755 753 750 748 746 745 744 743 743 743 743 743 743 742 742 741 741 741 741
799 802 804 806 808 811 813 814 815 816 816 817 818 818 819 819 820 820 821 822 823 823 824 825 825 825 825 825 825 825 825 825 824 823 823 822 821 820 819 818 816 814 812 810 807 804 802 799 797 794 791 788 786 784 782 780 778 776 774 771 769 767 765 763 761 759 757 755 753 750 749 747 746 746 745 745 745 745 744 744 744 743 743 744 745
799 802 804 806 808 811 813 814 814 815 815 816 817 818 818 819 820 821 821 822 823 824 825 825 826 826 826 826 826 825 825 825 825 824 824 823 822 821 820 819 817 815 813 811 809 806 804 801 798 796 793 790 787 785 783 781 779 777 775 773 771 769 767 765 763 761 759 757 755 753 752 750 749 748 748 747 747 747 746 746 746 746 746 747 748
800 802 805 806 809 811 812 814 814 814 815 816 817 817 818 819 820 821 822 822 823 824 825 826 826 826 826 827 826 826 826 826 826 826 825 824 824 823 821 820 819 817 815 813 811 808 806 803 800 798 795 792 789 787 785 783 781 779 777 775 773 771 770 767 766 764 761 760 758 756 755 754 752 751 751 750 750 749 749 749 749 749 750 751 752
800 803 804 806 808 810 812 813 814 814 815 816 817 818 819 819 820 821 822 823 824 825 825 826 827 827 827 827 827 827 827 827 827 827 826 826 825 824 823 822 820 818 817 815 813 811 808 805 803 800 797 794 791 788 786 784 783 781 779 777 775 774 772 770 768 767 764 763 761 760 758 757 756 755 755 754 753 753 753 753 753 753 754 755 755
801 802 804 805 808 810 812 813 813 814 815 816 817 818 819 819 820 821 822 823 824 825 826 827 827 828 828 828 828 828 828 828 828 828 827 827 826 825 824 823 822 820 819 817 815 813 811 808 805 802 799 796 794 791 788 787 785 783 781 779 778 776 774 773 771 769 767 766 765 763 762 761 759 759 758 758 757 757 757 757 757 757 758 758 759
801 802 804 805 808 810 811 812 813 813 814 816 817 818 819 820 820 821 822 823 824 825 826 827 827 828 828 829 829 829 829 829 829 829 828 828 827 826 825 824 823 822 820 818 816 815 812 810 807 805 802 799 796 793 791 789 787 785 784 782 780 778 777 775 774 772 770 769 768 767 765 764 763 763 762 762 761 761 761 761 762 762 762 763 763
801 802 803 805 808 810 811 811 812 813 814 816 817 818 819 820 820 821 822 823 824 825 826 827 828 828 829 829 830 830 830 830 830 830 829 829 828 827 826 825 824 823 821 820 818 816 814 812 809 807 804 801 798 796 793 791 790 788 786 784 783 781 779 778 777 776 774 772 771 770 769 768 767 767 766 766 765 765 765 766 766 766 767 767 768
801 802 803 806 808 809 810 811 812 813 814 816 817 818 819 820 820 821 823 823 824 825 826 827 828 829 829 830 830 830 831 831 831 831 830 830 829 828 827 826 825 824 823 821 820 818 816 814 811 809 806 803 800 798 796 794 792 790 789 787 786 784 783 782 780 778 777 775 774 773 772 772 771 770 770 770 769 769 769 770 770 771 771 772 772
800 801 804 806 807 808 809 810 811 812 814 816 817 818 819 820 821 822 823 823 825 826 826 827 828 829 830 830 831 831 831 832 832 832 831 831 830 829 828 827 827 826 824 823 821 819 818 816 814 811 808 805 803 801 798 796 794 793 791 790 788 787 786 785 783 781 780 779 777 776 775 775 774 774 774 773 773 774 774 774 775 775 776 776 776
799 801 804 806 807 808 808 809 810 812 814 815 817 818 819 820 821 822 823 824 825 826 827 828 829 829 830 831 831 832 832 832 832 832 832 832 831 830 829 828 828 827 826 824 823 821 820 818 816 813 811 808 805 803 801 799 797 796 794 793 791 790 789 788 786 784 783 782 781 780 779 778 778 778 778 777 777 777 778 778 779 779 780 780 780
798 801 803 806 807 807 808 808 810 812 813 815 817 818 819 820 821 822 823 824 825 826 827 828 829 830 831 831 832 832 833 833 833 833 833 832 832 831 830 830 829 828 827 826 825 823 822 821 819 816 813 811 809 807 804 802 800 799 797 796 795 794 792 791 789 788 787 786 785 784 783 782 782 782 781 781 781 781 781 782 782 783 783 784 784
798 800 803 805 806 806 807 808 810 811 813 815 817 818 819 820 821 822 823 824 825 826 828 828 829 830 831 831 832 833 834 834 834 834 834 833 833 832 832 831 830 829 828 827 826 825 824 823 821 819 817 814 812 810 808 806 804 803 801 800 799 797 796 794 793 792 791 789 788 788 787 786 786 785 785 786 786 785 786 786 786 787 787 788 788
798 800 802 804 805 805 806 808 809 811 813 815 816 817 818 819 820 822 823 824 825 827 828 829 830 830 831 832 833 834 834 835 835 835 835 834 834 833 833 832 831 830 830 829 828 827 826 825 824 822 820 818 816 814 812 810 809 807 806 804 802 801 799 798 797 796 795 793 792 792 791 790 789 789 789 790 790 790 790 790 791 791 791 792 792
Wind_Speed
10 10 11 10 9 8 8 7 6 5 6 7 7 7 6 6 7 7 6 4 3 2 2 2 2 2 2 2 3 3 4 4 5 4 6 8 10 11 12 14 16 16 16 14 12 10 9 7 6 5 5 5 5 6 5 5 5 5 4 4 4 3 3 4 5 5 8 10 10 11 11 10 11 10 9 10 10 10 9 9 9 10 11 11 10
12 12 11 10 8 8 8 8 7 6 8 9 8 8 8 8 8 8 7 7 6 4 4 3 2 2 1 2 3 4 3 4 4 4 6 8 10 12 14 15 17 18 17 14 12 11 10 9 8 7 7 6 6 7 8 8 8 7 7 6 6 5 5 6 7 6 8 10 10 10 10 10 11 10 10 11 11 10 9 8 8 8 8 9 10
13 13 11 10 9 8 7 6 7 8 9 9 9 9 9 9 9 8 8 7 5 4 3 2 2 2 2 3 3 3 3 3 3 4 6 9 11 13 14 16 18 18 16 13 12 12 10 9 9 8 8 8 8 8 8 9 10 10 10 9 10 10 9 9 10 9 10 11 10 11 11 10 11 11 11 11 11 11 11 10 10 9 8 8 9
13 13 11 10 8 7 7 7 9 10 10 9 9 9 9 9 8 6 6 5 4 4 3 3 2 2 3 4 3 3 3 3 3 4 7 9 11 13 15 17 17 16 14 12 12 11 10 9 9 9 9 9 9 9 9 10 11 12 12 10 9 11 11 11 12 13 13 12 12 13 13 13 12 11 11 12 12 11 11 12 12 12 11 10 10
13 13 11 10 8 8 9 10 10 11 11 9 9 9 9 8 7 5 5 4 4 4 3 3 2 2 3 4 4 4 3 3 3 5 7 9 11 14 16 18 17 15 13 12 11 11 11 11 11 11 11 10 10 10 11 11 12 12 12 11 9 9 10 11 11 12 13 14 15 15 14 14 14 13 12 12 13 13 13 14 14 13 13 13 13
13 12 11 10 9 8 11 12 12 12 10 9 9 8 7 6 5 5 4 3 3 3 2 2 2 3 4 4 4 4 3 2 2 4 6 9 12 15 18 19 17 15 12 12 13 13 13 14 14 14 13 13 12 12 12 12 12 11 11 10 10 10 11 11 11 11 12 13 15 14 13 13 13 13 12 12 13 14 15 16 15 13 13 13 14
13 12 11 11 9 9 12 13 12 11 9 9 9 7 6 5 4 4 3 2 2 2 2 2 3 4 4 3 3 3 3 2 2 4 6 9 13 16 19 19 17 15 13 13 14 15 16 17 17 17 16 15 14 14 13 12 11 10 10 10 10 10 10 11 10 11 12 13 13 13 13 13 12 13 12 12 13 14 16 17 16 15 15 14 15
13 11 11 11 10 10 12 12 11 10 9 8 7 6 5 4 3 2 1 2 2 2 2 3 4 5 4 3 3 3 3 2 1 3 6 9 13 17 19 18 17 16 16 16 17 17 18 18 18 18 17 15 15 14 13 12 12 11 10 10 10 10 10 10 11 12 13 14 14 15 15 14 13 12 11 11 12 13 13 14 15 16 17 16 15
13 12 11 11 11 11 11 11 11 9 8 7 6 5 5 3 3 2 0 1 1 2 2 3 4 4 4 3 3 4 4 2 2 4 6 10 13 16 18 17 17 17 18 19 20 21 21 21 20 18 16 15 14 14 13 13 12 11 10 10 10 10 11 11 12 13 13 13 14 15 16 14 11 10 9 9 10 11 11 12 14 15 16 16 14
13 12 12 11 11 11 11 12 11 9 8 7 5 5 4 3 2 1 0 0 1 2 2 3 3 2 2 2 2 4 4 2 2 3 7 10 12 15 16 16 16 17 18 20 22 23 24 24 22 19 17 15 14 14 13 12 11 10 10 10 10 11 12 13 13 13 12 11 11 12 12 13 12 11 10 10 10 10 11 11 13 13 12 13 12
14 13 12 11 11 12 12 12 11 9 7 5 4 3 2 2 2 1 1 0 0 2 2 3 3 2 1 0 2 4 3 2 1 3 7 10 12 13 14 15 16 17 19 21 23 25 25 24 22 19 18 17 16 15 14 12 11 12 13 13 13 14 14 14 15 14 12 12 11 11 11 13 15 13 12 11 10 9 9 10 12 13 12 11 11
14 13 12 11 11 12 13 12 9 7 6 4 3 2 2 1 2 2 1 1 1 1 1 2 2 1 2 1 3 4 3 2 2 5 8 9 10 12 13 15 17 19 21 23 24 24 24 22 20 19 17 17 17 17 16 14 14 14 16 17 17 18 17 17 16 16 15 14 14 12 12 14 15 14 11 10 9 9 10 10 11 11 12 12 11
15 14 12 12 12 13 12 10 9 8 7 5 3 2 2 2 2 1 1 3 3 3 3 2 1 1 1 0 2 3 1 3 4 5 8 9 11 12 13 15 17 20 22 24 23 22 20 20 20 19 18 17 17 17 16 16 16 17 18 19 20 20 19 19 19 18 17 16 15 15 14 13 14 13 11 10 10 10 10 10 10 10 11 13 13
15 14 13 13 13 13 12 10 9 8 7 4 2 2 1 2 2 3 3 4 5 5 5 4 4 4 3 2 1 1 2 4 5 6 9 10 11 13 14 16 19 22 22 21 19 18 18 19 19 20 19 18 18 17 17 17 18 20 21 22 23 23 22 22 21 18 16 15 15 15 14 12 12 12 12 13 13 13 13 12 11 10 11 13 13
14 13 14 14 14 13 11 10 9 7 5 2 1 1 1 2 4 5 5 6 6 6 6 5 5 5 4 2 1 1 3 4 6 8 10 11 11 13 15 18 21 21 19 17 16 17 18 17 18 18 19 19 17 16 16 16 18 21 23 24 24 24 23 22 20 17 15 14 13 14 14 13 12 13 13 13 15 15 15 13 11 11 12 13 12
14 14 14 13 13 12 10 9 8 7 3 0 1 1 3 6 7 7 7 8 7 7 7 6 5 4 2 1 1 2 3 6 8 10 10 11 12 15 17 19 19 18 17 17 17 18 17 16 16 16 16 17 17 17 17 17 19 21 23 23 22 21 19 18 16 14 13 13 13 14 15 15 15 15 14 13 14 13 12 11 10 9 10 10 11
14 14 13 12 12 11 10 10 9 5 1 2 3 4 7 8 9 8 8 8 8 7 6 6 4 3 2 1 1 3 5 7 8 8 9 11 14 16 17 17 17 18 18 18 17 16 15 14 15 16 16 17 18 18 17 18 20 21 20 20 21 20 19 17 16 16 15 14 14 15 17 18 18 17 14 12 11 10 8 10 9 7 7 8 9
14 13 11 11 12 12 12 11 8 3 1 4 6 8 9 10 10 9 8 7 7 6 5 5 4 3 2 1 2 4 5 6 7 8 10 13 14 14 15 17 19 20 20 18 16 15 14 14 15 16 17 18 18 18 17 18 19 19 18 18 19 19 19 19 20 21 20 19 18 16 15 16 16 16 14 11 9 8 9 11 10 7 7 8 9
13 12 12 12 13 13 12 10 6 3 4 8 10 10 11 11 11 9 6 6 6 6 5 4 3 3 2 2 2 2 3 5 7 9 11 11 12 14 16 18 19 19 20 19 17 16 14 14 15 16 16 17 18 18 19 18 19 18 17 17 18 18 18 19 20 21 21 21 20 17 15 14 14 13 12 10 9 9 11 12 11 9 10 11 9
13 13 13 13 13 12 9 6 4 5 8 11 12 12 11 11 10 7 6 6 6 5 4 2 2 3 3 3 3 4 6 8 9 10 10 11 12 15 17 17 18 19 20 20 19 18 17 16 17 18 19 20 21 21 21 21 21 20 19 17 17 18 18 17 18 20 20 20 20 18 17 16 13 12 10 8 8 8 8 10 10 10 11 11 9
14 14 14 14 13 9 4 3 5 9 12 13 13 12 11 9 7 6 6 6 5 5 4 3 3 4 4 4 5 6 8 9 9 10 11 12 14 15 16 16 18 19 20 19 20 20 20 20 22 23 24 25 25 25 23 22 22 22 21 20 19 18 18 17 17 18 20 21 20 18 17 16 14 12 10 8 7 6 6 7 8 10 10 10 10
15 15 15 14 11 5 2 4 9 12 14 14 13 12 10 8 7 6 6 5 5 6 6 5 4 4 4 5 6 7 8 9 10 11 13 13 13 14 15 16 17 19 19 20 20 21 22 24 26 27 27 27 26 24 23 22 22 21 19 18 19 19 18 17 16 17 19 20 19 15 14 15 15 12 10 10 9 8 7 7 7 8 9 10 12
15 16 16 13 8 4 5 8 12 14 14 13 12 11 10 9 7 6 5 5 7 8 8 7 6 6 6 7 7 7 8 9 11 13 14 13 13 14 15 16 16 17 18 20 21 23 25 26 28 28 28 27 26 24 23 22 20 18 17 17 18 19 18 16 16 17 18 20 18 14 11 12 13 11 10 11 12 11 9 8 7 7 8 9 10
17 17 16 12 6 5 8 12 14 15 14 11 11 11 11 9 8 6 5 7 8 9 9 9 9 9 9 8 7 7 8 11 13 13 13 13 13 14 15 14 14 16 18 20 22 24 25 25 27 28 28 27 26 24 22 20 17 17 18 18 17 16 15 16 16 18 18 19 18 14 12 12 13 12 12 12 13 12 10 9 8 7 8 9 9
19 18 15 11 10 12 15 16 16 15 13 11 10 11 11 9 7 7 7 8 9 10 10 10 10 9 8 7 7 8 10 13 13 12 12 12 13 14 14 13 14 17 19 20 21 23 23 24 26 28 28 28 28 25 22 20 16 16 18 18 16 15 16 16 17 17 17 18 17 15 13 14 14 13 12 12 11 10 10 9 9 8 7 8 9
19 17 14 13 16 19 19 19 18 15 13 11 10 10 10 9 8 9 9 9 10 10 9 9 9 9 8 7 8 10 13 14 12 11 12 12 13 14 13 13 16 18 18 20 22 23 23 25 28 29 28 27 27 25 23 21 18 16 16 17 17 17 17 16 16 16 16 17 17 16 15 15 14 13 12 11 10 9 9 10 11 10 9 9 9
18 16 15 16 19 20 20 19 18 15 13 12 11 10 9 10 11 11 11 11 10 9 8 8 9 8 8 8 9 11 13 13 12 12 12 12 13 14 13 15 17 18 20 23 24 24 25 27 29 29 27 26 25 24 23 23 21 18 16 16 17 17 16 14 14 14 15 16 16 16 16 15 14 13 12 10 10 9 9 9 9 9 9 10 9
12 13 15 19 20 20 19 18 17 15 14 13 12 12 12 12 13 12 12 11 10 8 7 8 9 8 8 9 10 12 13 13 13 13 13 13 14 14 14 16 18 19 23 25 25 25 27 29 29 28 27 26 25 23 22 23 21 19 16 16 17 17 16 13 13 14 15 15 15 16 16 14 13 11 10 9 9 9 8 7 7 7 7 7 6
7 10 14 19 20 19 19 18 17 16 16 14 14 14 13 13 13 12 11 10 9 8 8 9 9 7 7 9 11 12 13 12 12 12 12 12 13 14 15 17 18 21 24 25 25 26 28 29 28 27 25 25 23 21 20 21 21 19 18 17 17 17 15 12 12 14 15 14 14 15 14 13 12 11 10 9 8 7 7 6 5 5 5 5 3
11 11 15 19 20 19 19 18 17 17 18 18 17 17 15 12 11 10 10 9 7 7 9 10 8 6 7 9 9 10 11 10 10 10 10 10 11 13 15 16 18 22 25 25 25 27 28 27 25 23 23 23 21 19 20 21 20 20 20 19 17 16 13 11 12 14 14 13 14 15 14 13 12 11 10 9 8 6 6 6 5 4 3 3 3
16 16 18 20 20 20 19 19 19 19 19 19 18 18 16 13 10 9 7 6 6 7 8 8 7 6 7 8 8 8 8 9 10 10 10 10 11 13 15 17 19 22 24 25 27 28 27 25 23 21 21 20 18 17 19 20 19 20 22 19 16 13 11 12 15 17 14 13 15 16 15 13 12 10 9 9 8 6 5 5 5 4 3 3 4
19 20 22 22 21 20 20 20 21 21 20 19 17 17 16 14 12 9 7 5 5 6 6 6 5 5 7 8 7 7 8 9 10 11 11 11 12 13 15 18 20 22 24 25 27 27 25 22 20 20 20 19 17 17 19 19 19 20 20 18 15 13 12 15 18 17 15 15 16 16 14 13 12 11 9 8 7 6 5 4 5 4 4 4 3
20 23 25 23 21 21 21 22 23 22 21 19 17 16 15 13 11 10 8 5 4 4 5 5 4 5 7 8 7 7 8 9 10 11 11 12 13 14 16 18 19 21 24 26 26 25 24 20 18 19 19 19 18 18 19 20 20 19 18 17 15 14 15 17 18 17 16 18 18 16 14 13 11 9 8 7 6 5 4 4 5 4 4 4 4
21 25 26 23 22 22 22 23 23 22 20 18 17 15 12 10 9 9 8 6 5 4 4 4 3 5 7 7 6 6 7 8 10 11 11 12 13 15 17 19 20 22 25 26 25 24 22 20 19 19 19 18 18 18 20 22 21 18 18 17 15 14 17 19 18 16 18 20 20 18 16 14 11 7 6 5 5 4 3 4 4 4 5 5 4
22 25 23 21 22 23 23 23 23 21 19 17 14 12 10 8 7 6 6 7 6 5 5 4 4 6 7 7 6 5 6 8 9 9 10 12 15 17 19 22 24 26 28 28 26 23 21 19 19 20 18 17 18 20 21 22 21 18 17 17 15 16 18 18 17 18 20 22 21 20 19 17 12 7 4 5 5 5 5 5 4 4 5 6 6
23 23 22 22 22 22 23 23 22 20 17 14 12 10 9 8 7 6 6 8 8 6 5 4 4 5 6 7 6 4 5 7 7 8 10 13 16 19 22 23 25 26 28 29 27 24 21 20 20 20 19 18 19 21 21 21 20 18 17 16 17 17 17 16 17 20 22 22 22 21 20 18 13 8 6 6 6 6 5 5 5 5 7 8 9
23 22 22 21 21 21 23 23 20 17 15 13 11 10 10 9 8 8 10 11 9 7 5 5 5 5 5 6 5 3 4 5 5 7 10 13 16 20 22 22 23 25 26 27 26 24 23 22 21 20 20 19 20 21 21 20 19 18 18 18 18 18 18 18 19 21 23 23 23 22 20 17 13 9 8 7 7 6 7 7 8 8 8 10 12
22 22 21 20 21 22 23 21 18 16 15 13 12 11 11 10 9 10 12 11 9 8 7 6 6 6 7 7 5 3 3 4 5 8 12 15 18 21 21 21 22 24 25 27 27 25 24 24 22 21 21 21 21 21 22 21 19 18 19 20 20 20 20 21 22 23 23 23 23 21 20 18 15 12 10 9 7 7 8 8 9 9 9 12 16
20 20 20 21 23 23 22 20 18 17 15 13 12 10 10 9 9 12 13 11 10 9 7 6 6 7 6 6 5 5 5 7 9 12 14 16 18 20 20 20 22 23 25 27 28 27 27 26 24 21 21 22 22 22 22 23 21 20 21 22 21 21 21 22 22 23 23 23 22 22 20 19 17 15 13 11 9 9 9 10 11 12 15 18 20
21 22 23 23 23 22 20 19 18 16 15 13 11 11 10 9 10 13 13 11 10 9 7 6 6 6 6 6 6 6 7 9 10 12 13 15 18 19 20 20 20 22 25 27 28 29 28 27 26 24 23 23 23 23 23 24 23 22 22 22 21 20 20 20 21 22 23 23 22 21 21 20 18 18 16 15 14 13 14 16 17 18 20 20 21
23 24 24 23 23 21 19 18 16 14 13 12 11 11 10 9 11 13 14 12 10 9 7 6 7 7 6 6 6 7 7 8 9 10 12 15 17 18 18 18 18 20 23 26 28 29 29 28 27 27 25 24 24 24 24 24 24 22 22 22 20 18 18 19 20 22 23 22 21 21 21 20 19 19 19 18 18 19 20 21 21 21 22 21 22
24 25 24 24 23 21 18 16 14 13 13 12 11 11 10 9 11 14 14 12 10 9 8 8 8 7 6 6 6 6 5 6 7 9 10 13 16 17 17 16 16 18 21 24 26 28 28 28 29 28 27 26 25 25 25 25 24 22 21 21 20 17 17 18 20 22 22 20 19 20 20 20 21 22 21 21 21 22 22 22 22 23 23 22 22
25 25 25 24 22 20 17 15 14 14 13 12 11 11 10 9 11 15 15 12 10 8 8 9 9 7 6 5 5 5 4 5 6 8 10 13 15 16 16 14 14 16 19 21 23 25 26 27 28 28 29 28 27 26 25 25 23 22 21 20 19 18 17 18 20 21 21 20 18 18 18 18 20 22 22 22 23 22 22 22 23 23 23 23 23
26 26 25 23 21 18 15 14 15 15 14 12 10 10 10 10 12 15 15 12 9 8 9 9 9 7 5 5 5 4 3 4 6 7 9 12 13 15 15 13 13 14 17 19 21 23 24 25 26 26 28 29 29 28 26 25 23 22 20 20 19 19 19 20 20 19 20 19 18 17 18 19 20 21 21 21 21 21 21 21 22 22 22 23 24
28 26 24 22 19 16 15 15 16 16 14 12 10 10 10 10 12 16 15 12 9 8 9 9 9 7 5 4 5 4 2 3 5 5 7 11 12 13 14 12 12 13 16 18 19 21 23 25 26 27 27 28 29 29 28 26 24 22 20 19 19 19 20 19 18 17 19 19 18 17 17 19 19 20 19 20 20 21 21 21 22 22 22 23 24
27 25 22 20 17 16 16 17 16 15 14 12 11 11 9 10 13 16 15 11 10 9 9 8 8 7 5 5 4 3 2 2 3 4 6 10 11 12 13 12 11 12 15 17 18 20 22 23 25 28 28 27 27 28 28 26 25 23 21 19 18 17 17 17 16 17 19 20 18 17 17 18 19 19 19 20 21 22 22 22 22 23 23 23 24
25 23 20 18 16 16 17 17 16 15 14 13 13 12 10 11 14 16 14 11 10 9 8 7 7 7 6 5 4 3 2 2 2 3 5 9 10 11 12 12 10 11 14 17 17 19 21 23 26 28 28 27 28 28 28 27 25 24 22 20 19 17 16 16 17 18 20 21 21 20 19 19 20 20 20 21 21 22 22 23 23 23 23 23 24
24 21 19 17 17 17 17 17 17 16 16 15 15 13 12 12 15 16 14 12 10 9 7 8 8 7 6 5 4 3 2 2 2 2 4 7 9 10 12 12 11 10 13 16 17 18 20 23 26 27 28 28 29 29 29 28 26 24 23 21 19 17 16 16 17 18 19 21 23 24 22 21 21 22 22 21 21 21 22 22 22 22 22 22 23
23 21 19 18 17 18 18 18 19 18 17 16 16 15 14 14 16 16 14 12 10 8 8 9 9 7 6 5 4 2 2 2 2 2 4 6 8 9 11 12 11 10 11 14 17 18 19 22 25 26 27 28 29 29 29 29 28 26 24 21 19 18 17 17 17 18 18 20 23 25 25 25 26 25 24 23 22 22 22 22 22 22 22 21 21
22 20 19 18 18 18 18 18 19 19 17 17 17 17 15 16 16 16 15 13 11 9 9 9 8 7 6 5 4 2 2 2 2 1 2 5 7 8 9 11 11 10 10 13 15 17 18 21 24 25 26 27 28 29 29 29 28 26 24 22 20 19 19 18 18 18 19 20 22 23 25 26 27 27 26 25 25 25 25 25 24 24 24 23 22
22 20 18 17 16 17 18 18 19 18 18 18 18 18 17 17 17 17 16 14 12 10 10 9 8 8 7 5 4 2 2 2 2 1 1 4 5 6 8 10 12 11 10 11 13 16 18 20 21 23 25 26 27 28 28 28 28 26 25 24 23 21 20 20 20 19 20 21 22 23 24 26 27 28 28 27 27 28 28 28 27 27 25 24 23
Wind_Direction
110 107 108 108 102 98 97 90 82 81 92 102 110 115 132 160 166 163 158 145 132 123 107 101 125 147 146 139 124 110 94 76 71 66 56 46 36 28 20 13 6 355 347 345 346 344 339 338 342 346 347 346 346 342 331 315 297 280 270 262 247 230 237 242 240 262 286 294 299 305 314 320 323 327 324 319 316 312 310 308 303 297 294 293 291
120 117 115 112 104 102 101 91 87 100 107 106 103 102 112 125 131 132 123 111 104 101 101 111 133 149 142 127 114 101 90 86 80 63 49 38 28 22 15 8 1 352 346 347 349 347 339 331 330 332 331 326 323 321 319 318 313 298 280 265 253 245 245 253 250 248 267 284 295 302 310 317 320 325 327 325 325 323 322 321 317 312 302 291 284
124 123 119 112 103 102 104 99 110 128 126 115 110 109 113 118 119 118 113 107 105 108 117 134 146 154 140 119 110 105 110 106 86 55 38 29 22 17 12 5 358 351 348 350 349 347 343 335 332 333 331 325 319 316 312 314 320 318 305 283 265 261 263 266 264 259 266 279 287 291 296 302 306 312 319 320 320 321 321 322 321 321 315 302 287
128 127 120 109 96 96 110 118 128 140 135 122 119 118 118 119 117 113 108 106 113 119 127 139 147 153 136 120 119 132 133 114 76 47 33 25 19 14 8 1 355 350 349 350 350 351 351 347 345 345 341 336 331 328 325 322 324 329 326 314 291 280 280 280 277 272 270 274 279 281 284 286 288 296 304 306 307 306 305 307 310 310 308 302 292
134 130 118 104 89 94 118 130 138 144 140 130 128 126 124 122 119 113 110 110 118 126 130 129 133 145 138 128 135 146 139 112 67 41 31 24 17 10 4 358 350 345 347 352 355 356 355 353 352 350 348 347 343 338 336 331 328 329 329 326 318 305 299 297 291 282 273 270 275 279 279 277 278 284 291 293 294 293 292 295 298 298 297 293 288
137 129 114 100 89 102 129 139 143 145 142 136 136 134 132 130 124 116 111 111 122 128 126 115 117 133 134 129 138 148 144 119 64 38 28 19 12 6 1 356 349 342 342 346 347 348 347 344 342 340 340 340 339 337 336 334 330 326 323 319 314 307 303 302 300 297 289 283 283 283 281 277 274 277 284 284 281 282 285 289 291 291 289 286 284
141 129 116 105 100 118 139 145 146 144 141 139 140 140 137 132 124 117 115 127 130 118 106 108 116 123 124 127 149 163 158 137 66 37 24 12 7 5 3 0 358 357 356 351 347 343 338 334 331 329 329 330 330 329 329 331 328 322 317 312 308 305 304 304 304 305 305 302 297 291 289 287 278 275 282 282 274 273 277 281 286 290 290 287 284
145 133 125 119 116 129 144 148 147 144 142 140 138 135 132 125 114 112 125 146 132 111 117 132 129 124 120 126 156 176 172 157 51 15 9 5 5 7 7 6 6 6 5 1 357 352 345 338 331 326 325 326 325 323 322 323 322 319 317 315 313 312 313 315 318 319 317 313 307 302 299 295 285 280 282 276 266 268 274 276 278 284 290 289 285
152 142 136 132 131 138 147 151 150 147 145 143 141 137 131 119 105 100 127 177 138 129 153 161 150 136 123 120 148 175 185 207 313 339 355 3 5 6 6 4 2 0 358 355 352 349 346 341 336 329 325 322 320 320 319 316 316 319 322 324 324 323 324 326 326 325 320 311 305 304 302 295 290 290 286 275 269 275 282 279 274 277 284 287 287
159 151 146 142 141 147 155 157 154 152 150 146 144 141 130 113 97 74 354 274 178 174 182 190 183 168 124 109 152 188 201 222 275 324 352 1 2 1 358 354 354 354 350 347 344 341 339 336 333 330 325 322 321 322 321 315 313 313 315 318 318 318 322 323 319 317 310 299 294 297 297 293 295 300 297 293 292 292 291 286 282 284 286 286 288
165 157 152 147 148 153 159 160 155 152 150 143 139 136 123 95 60 22 13 54 195 204 214 214 196 193 332 351 200 207 209 214 265 339 357 359 354 350 347 345 347 347 344 340 336 334 333 331 330 329 328 327 327 326 323 317 313 311 311 314 314 313 314 312 309 307 301 292 287 286 286 288 294 299 299 301 303 302 300 296 291 291 291 291 292
169 162 157 151 153 157 161 161 155 148 145 139 131 112 73 21 2 3 37 98 108 137 162 180 181 248 306 276 214 208 221 275 328 351 355 348 338 335 337 340 342 342 340 335 331 330 331 331 331 331 330 329 326 323 320 314 310 307 306 308 305 302 301 300 299 299 296 291 286 281 278 281 287 292 294 298 305 305 303 298 291 285 285 289 288
172 164 158 155 158 162 164 163 156 156 158 151 132 93 51 358 356 39 104 119 114 108 107 113 110 26 6 164 202 215 255 322 336 341 335 327 323 326 331 337 339 338 335 331 330 332 335 334 333 333 332 327 322 320 317 313 311 307 303 302 299 297 298 298 298 300 297 288 278 276 276 276 280 286 292 298 302 303 303 300 294 289 286 286 284
174 165 158 158 164 168 171 169 165 168 168 156 130 99 55 16 54 100 119 118 111 101 98 100 95 84 83 105 177 249 333 329 323 317 313 313 316 322 330 336 336 334 333 333 336 338 338 334 330 328 327 325 324 323 321 318 314 310 306 303 303 304 304 304 306 308 303 288 273 273 281 282 281 288 297 301 299 300 304 301 297 295 290 288 286
175 166 160 163 171 174 175 175 173 171 165 139 85 95 119 95 105 119 118 111 107 102 99 94 89 88 91 115 134 7 342 318 307 302 302 309 319 328 335 336 335 335 337 341 341 337 334 330 325 325 326 329 333 334 330 323 317 314 312 311 312 313 312 314 318 314 303 290 277 276 285 290 291 294 299 301 298 298 300 295 290 291 290 292 292
176 169 166 168 174 176 180 184 178 172 171 52 37 105 126 118 120 123 115 108 105 102 101 95 88 90 93 89 37 351 323 309 304 299 302 317 330 336 338 338 338 341 343 342 337 335 335 334 332 333 335 338 341 341 338 333 327 324 324 324 323 322 322 327 330 323 311 300 288 281 282 285 288 291 293 294 292 290 291 287 282 282 286 293 298
179 174 170 170 175 181 188 187 179 174 169 47 85 123 131 125 124 125 118 109 105 102 104 106 107 112 113 97 306 295 304 311 311 310 319 333 339 341 342 342 343 344 343 341 337 336 340 343 342 341 342 342 342 341 340 338 334 332 331 329 328 327 327 331 331 327 323 314 298 287 281 278 278 278 280 281 279 272 269 272 272 272 279 286 295
182 178 175 176 182 185 185 182 179 174 97 106 122 133 134 130 127 124 116 110 110 112 113 113 113 109 92 37 301 297 310 324 332 336 341 345 347 348 347 344 344 345 345 345 343 342 344 348 348 345 343 343 342 340 338 336 333 332 329 328 327 326 327 330 329 327 325 319 312 305 297 289 283 278 273 268 267 257 246 253 260 262 269 273 281
187 186 186 189 190 187 185 186 181 142 125 130 132 133 133 130 127 123 119 118 122 121 113 102 93 75 48 28 4 351 357 359 357 356 359 360 355 349 345 343 343 346 348 348 346 346 346 348 349 347 342 339 337 336 334 331 328 328 326 322 321 322 326 330 330 330 327 321 317 316 312 310 306 299 286 270 264 258 247 252 260 255 257 266 274
195 194 195 198 196 192 192 192 160 124 134 138 134 132 133 131 130 131 126 124 125 119 105 84 70 67 64 58 46 28 20 19 15 14 15 7 351 343 343 345 346 347 348 347 346 346 346 343 342 341 338 334 331 330 328 326 322 320 318 314 313 317 322 321 323 329 329 323 319 314 311 314 318 323 318 296 279 272 258 256 261 258 258 264 267
196 194 196 200 199 196 193 166 133 126 134 137 133 132 134 134 136 135 122 116 116 109 98 86 75 76 73 52 33 27 30 34 31 23 10 355 344 342 345 348 347 345 343 343 343 344 343 340 339 338 336 333 330 327 325 324 322 319 315 310 306 311 315 312 314 323 325 324 322 317 314 317 320 324 329 322 310 301 285 270 267 267 267 264 260
193 191 193 195 196 194 168 144 139 135 135 135 132 133 139 143 142 132 119 111 107 104 98 85 74 70 61 46 42 45 49 43 26 9 357 349 349 350 351 349 346 342 341 343 344 344 341 339 339 338 335 332 330 328 326 325 325 325 323 314 304 303 306 307 312 320 322 322 321 316 317 322 323 321 324 324 322 316 304 290 279 273 270 266 263
190 186 182 182 186 181 156 146 142 142 142 140 138 141 145 145 138 129 124 118 113 105 91 74 66 66 62 61 62 61 53 31 10 357 354 357 1 358 354 351 348 347 347 347 346 344 341 340 340 339 337 334 331 329 328 328 331 335 336 327 314 306 304 307 316 321 321 320 318 312 313 321 323 322 321 322 324 321 311 302 293 282 276 274 271
188 178 171 172 183 178 159 152 150 149 148 147 148 149 148 144 137 133 130 123 111 97 79 65 63 68 70 71 71 59 34 14 2 357 1 7 6 359 356 356 356 355 352 349 348 345 342 341 343 344 343 341 337 333 332 335 341 344 340 336 332 327 321 319 321 322 321 322 320 314 314 319 321 320 318 319 321 318 310 304 300 293 289 284 277
187 177 170 168 167 164 161 159 157 154 154 159 160 154 153 154 148 140 133 119 102 87 73 61 60 69 74 68 56 39 19 8 4 8 12 9 2 358 359 1 359 355 351 349 348 344 340 341 346 347 347 347 346 342 339 342 344 342 339 340 343 343 337 329 326 325 325 325 323 318 318 321 321 320 318 318 317 313 308 305 301 299 299 295 286
189 179 172 163 156 157 161 161 159 158 161 165 161 157 162 163 150 139 130 112 95 80 67 58 59 68 70 55 38 24 15 12 13 16 13 4 359 0 0 357 354 351 350 350 347 344 343 345 346 346 345 347 347 345 346 349 344 335 337 345 346 343 340 334 331 332 330 325 322 322 322 323 324 324 324 323 318 315 316 315 309 306 307 310 309
188 178 169 162 159 160 163 161 160 161 162 159 155 156 161 156 139 129 121 108 93 79 64 55 56 62 57 41 26 14 12 16 20 16 7 1 2 2 356 350 350 350 352 351 348 348 348 347 345 344 344 345 348 349 352 354 347 336 337 345 345 341 340 337 335 335 331 324 322 323 323 323 324 325 326 326 321 319 323 323 318 312 309 312 319
187 181 170 164 164 167 168 166 164 161 156 153 151 149 149 141 128 118 113 103 91 80 67 55 54 58 49 30 13 4 9 19 22 11 360 357 1 360 354 353 355 356 355 352 349 349 349 346 345 346 346 346 349 353 355 354 350 344 344 346 344 343 345 344 339 337 334 328 324 322 323 323 322 320 322 321 318 321 328 326 321 320 314 310 315
197 201 183 169 168 172 173 170 167 159 152 150 146 143 142 136 124 118 116 106 89 74 56 48 54 57 42 22 7 1 8 20 18 3 354 355 359 358 358 360 1 359 356 352 349 349 348 345 345 346 346 347 349 351 353 354 353 352 352 350 347 347 350 348 342 339 336 330 324 321 321 321 319 318 320 319 316 322 331 330 325 327 325 312 300
180 197 192 177 174 178 175 171 167 160 155 152 147 144 144 141 131 127 126 116 95 66 44 43 55 57 35 23 17 12 14 17 9 356 354 358 359 358 0 2 1 357 354 352 351 350 346 343 343 345 346 349 351 352 355 356 355 354 354 353 353 353 351 348 345 343 338 331 326 324 321 319 317 318 318 316 314 317 330 335 329 327 330 318 299
163 181 192 186 182 182 177 172 168 164 160 158 153 150 152 154 151 145 137 120 93 62 42 42 57 52 27 22 29 30 23 13 4 358 355 355 354 356 359 0 358 356 354 353 353 351 347 343 343 346 350 352 353 354 355 355 356 355 353 353 354 353 349 347 348 346 340 333 329 327 323 320 317 316 314 312 312 317 329 340 339 334 335 331 312
161 179 192 191 188 186 181 174 170 167 164 162 159 157 159 160 161 160 152 125 91 66 49 54 68 49 19 14 24 25 18 13 8 360 354 353 354 357 0 360 357 356 357 357 355 352 350 346 345 349 354 354 354 355 355 355 354 354 353 352 350 347 345 347 350 349 343 338 335 332 329 326 322 318 316 313 316 324 332 341 348 348 343 340 329
166 182 191 192 190 189 185 178 175 171 167 166 166 166 165 163 164 165 161 144 112 80 65 75 76 31 10 10 13 13 15 15 8 358 355 358 0 2 2 0 359 360 1 1 358 354 352 351 351 354 356 356 355 355 356 355 353 351 351 350 345 342 345 351 354 352 348 346 344 340 337 335 328 322 320 322 328 338 342 343 353 1 356 348 341
171 185 192 194 194 193 188 183 179 175 171 172 172 172 171 172 172 170 165 155 138 106 90 94 64 14 10 13 12 13 18 15 5 359 1 6 7 6 4 3 6 8 8 5 2 358 355 354 356 358 358 358 358 357 355 355 354 352 353 351 345 344 351 355 356 353 352 353 352 349 348 349 343 334 334 344 356 6 6 4 9 9 358 355 7
177 188 194 198 199 196 192 187 181 176 174 175 176 178 183 185 183 180 171 155 137 117 107 93 43 21 21 20 19 21 20 12 5 4 8 11 10 9 9 8 9 10 9 7 6 3 359 358 360 0 359 358 359 359 357 356 356 355 354 352 350 350 354 355 355 356 359 359 357 357 2 5 6 6 16 22 29 37 35 28 25 15 12 26 55
182 190 196 202 202 198 192 187 181 176 175 176 178 182 183 175 165 157 147 140 131 121 112 83 47 37 31 23 19 19 16 16 15 12 13 15 14 14 14 12 9 7 7 8 8 7 6 5 4 3 2 359 359 1 0 359 359 360 358 356 356 356 355 355 357 2 6 7 4 6 11 15 20 36 54 51 48 52 48 38 38 43 47 54 67
186 194 198 201 199 193 186 182 177 174 172 170 169 169 167 162 155 145 138 135 130 122 109 83 60 49 33 22 19 18 19 27 31 23 19 20 20 19 18 15 10 8 9 10 11 11 11 11 9 6 5 2 360 1 2 2 2 3 2 2 4 3 2 4 9 11 12 12 11 12 15 20 28 45 59 61 57 55 53 51 51 54 56 62 74
192 198 198 192 186 180 176 174 172 169 165 161 161 162 163 163 157 145 139 136 130 122 110 82 56 39 27 25 31 42 45 50 47 33 26 25 23 21 19 16 15 15 15 17 19 18 16 15 12 9 7 6 4 3 4 5 6 6 5 7 11 11 10 13 17 17 16 15 16 19 23 29 38 50 60 63 59 53 54 54 49 52 65 78 85
192 191 184 177 173 171 169 168 166 163 159 158 161 165 167 167 157 148 144 140 134 128 117 87 58 43 39 44 54 62 63 58 47 35 29 27 24 21 19 18 20 21 22 24 25 25 22 19 16 14 12 11 10 9 8 9 10 10 10 11 12 10 12 16 18 18 17 18 21 27 33 40 48 56 60 61 58 56 58 58 59 69 81 88 89
182 176 171 169 167 167 167 165 163 162 161 162 166 169 169 166 161 157 152 146 141 138 126 99 76 62 61 67 69 69 68 59 46 36 30 28 25 21 21 23 24 26 28 30 31 29 26 22 20 20 19 18 17 16 14 14 15 15 16 18 15 11 14 19 19 20 23 24 27 33 40 47 55 59 61 62 65 68 70 72 75 81 86 89 90
173 169 167 167 167 167 166 165 164 166 167 169 171 170 165 163 167 165 158 150 149 147 132 111 97 85 79 76 72 72 72 60 47 39 33 29 26 22 23 28 30 30 32 35 35 33 31 27 24 23 23 23 23 22 20 20 20 19 21 24 21 15 18 23 24 26 28 29 31 38 45 52 58 61 62 65 70 73 76 78 81 84 87 89 91
169 168 168 168 169 169 168 166 166 168 168 167 169 170 169 171 174 169 161 155 156 154 138 124 115 102 90 79 72 76 76 60 48 42 36 30 26 24 27 32 35 34 35 39 40 38 35 33 31 29 26 26 26 25 24 24 24 22 24 26 23 19 21 26 30 33 34 33 35 42 49 56 62 64 65 69 71 73 76 79 82 84 86 86 88
170 169 168 169 171 172 172 170 168 167 165 165 169 176 181 182 176 169 163 160 161 159 148 135 126 117 103 86 79 87 84 61 49 44 36 29 26 26 30 36 38 36 37 40 42 40 36 34 34 34 33 32 31 30 29 27 25 24 26 28 28 26 27 31 34 38 41 40 41 44 49 56 63 65 66 68 71 72 73 76 79 83 85 86 88
170 168 167 168 170 172 174 173 169 165 164 165 173 182 185 181 174 169 166 163 165 165 158 147 139 132 118 95 89 102 99 63 51 43 34 28 26 27 31 36 38 35 34 37 40 39 34 30 31 34 36 36 36 35 33 31 29 27 27 30 34 35 37 39 40 44 49 50 49 49 53 57 61 63 64 65 68 71 72 73 76 78 80 84 86
168 166 166 168 168 169 170 168 165 166 167 169 173 178 179 178 174 170 168 168 171 171 166 158 150 145 135 110 102 117 109 60 51 44 33 27 25 27 31 35 38 34 32 34 37 37 33 30 31 33 35 35 36 36 35 34 33 31 31 33 38 41 44 47 49 54 60 61 57 55 57 59 61 63 65 66 68 71 74 76 77 77 78 81 82
169 168 169 171 172 169 168 168 167 170 173 174 174 175 177 178 175 173 172 174 175 174 175 172 163 155 145 122 111 123 122 65 55 49 34 27 25 27 31 34 37 36 33 33 35 36 35 34 33 33 33 33 35 36 36 35 35 36 36 37 40 44 48 53 58 63 67 68 65 62 63 65 67 69 70 71 73 74 75 77 79 81 83 84 83
172 171 173 177 175 169 168 170 172 174 177 179 179 179 179 178 176 176 177 177 173 174 181 182 167 154 141 126 122 138 144 92 74 57 35 26 24 29 31 32 36 40 37 35 36 39 39 37 34 32 32 34 36 37 37 37 37 38 39 39 42 44 47 54 62 67 71 75 75 72 69 69 71 73 74 76 77 78 78 80 82 84 85 86 85
175 175 178 182 178 172 170 171 174 176 180 182 183 181 179 179 179 179 179 177 173 172 175 169 157 146 137 132 136 152 157 123 107 72 35 25 24 30 32 32 36 42 41 38 40 43 42 38 35 34 35 37 38 38 38 39 39 40 41 42 43 45 48 54 62 69 75 79 82 81 78 75 74 75 76 76 78 79 81 83 84 85 85 85 84
178 178 181 183 182 178 174 173 177 182 183 184 186 185 181 179 180 181 180 178 174 170 168 162 154 146 141 141 147 161 166 146 133 83 34 24 25 31 33 31 34 43 46 43 43 45 44 40 37 36 37 39 40 41 41 40 39 40 42 44 45 48 52 56 62 69 75 81 84 85 85 83 82 81 79 78 78 79 80 80 81 83 84 83 81
181 183 185 186 186 185 181 179 183 188 189 189 189 187 183 181 182 183 182 179 174 169 166 163 157 151 148 149 156 170 174 158 147 111 33 24 27 32 34 32 34 43 50 48 47 48 46 42 39 39 40 41 42 43 43 42 42 42 44 47 49 52 56 60 64 69 74 80 83 86 87 87 87 86 85 83 83 83 83 83 84 84 82 80 79
184 188 190 190 190 189 187 186 189 193 195 194 193 191 188 185 184 185 186 184 178 172 169 165 160 156 154 156 163 172 170 161 159 149 37 24 29 36 37 34 36 44 53 52 50 51 49 45 42 42 43 45 46 46 46 47 46 46 48 52 55 57 60 63 66 69 73 77 81 84 85 86 88 88 87 87 87 87 87 87 87 86 83 81 81